sat.trackr.live / text

‹ back to catalog

STARLINK-32374

NORAD 62145 · 2024-224G

PAYLOAD ACTIVE UNKNOWN

§ Identity

Operator
Country
US
Launch date
2024-11-30
Launch site
AFETR
Launch vehicle
Mass (kg)
RCS (m²)

Purposes: comms

External: N2YO · Heavens-Above · Gunter

§ Orbital elements

Epoch: 2026-09-21T08:33:59.531328Z

Period
94.27 min
Inclination
43.0049°
Eccentricity
0.0002504
Mean motion
15.27581395 rev/d
Perigee alt
481.3 km
Apogee alt
484.8 km
Semi-major
6,861.2 km
B*
4.0078e-4
RAAN
133.1785°
Arg perigee
265.2065°
Mean anomaly
94.8500°
Rev number
10,240

§ Raw data

STARLINK-323741 62145U 24224G   26264.35693902  .00010783  00000+0  40078-3 0  99992 62145  43.0049 133.1785 0002504 265.2065  94.8500 15.27581395102404

JSON: /api/v1/satellites/62145 · /tle

For live sub-satellite position, see the globe view (requires WebGL).

§ Visibility from observer

Set your observer location to see the next 7 days of passes ≥ 10°. The values pass through the URL so the page stays shareable.

No JS? Fill the form by hand. The geolocation button needs JavaScript.